Theta_e
307 307 307 307 308 308 308 309 309 309 310 310 311 311 312 312 313 313 313 312 312 311 312 311 312 313 313 314 314 313 310 311 312 311 314 311 311 311 313 314 316 316 315 315 318
307 307 307 308 308 308 308 308 309 309 310 310 311 311 312 312 313 314 314 314 313 312 311 311 312 314 314 314 313 309 308 311 309 309 312 311 312 312 313 312 314 314 315 315 318
307 307 308 308 308 308 308 308 308 309 309 309 310 311 311 312 314 315 315 314 314 313 311 312 312 314 313 314 313 309 307 309 312 313 313 312 312 312 312 311 314 315 315 315 317
308 308 308 308 308 309 309 309 309 308 308 309 309 310 311 312 311 314 311 311 312 313 311 312 313 314 311 312 313 312 310 311 313 314 313 311 312 312 312 314 315 315 315 315 315
308 309 309 309 309 309 309 309 309 309 309 309 309 309 310 312 314 316 313 311 311 312 312 312 313 313 310 313 313 311 311 313 314 314 314 313 312 312 313 315 315 315 315 315 315
309 309 309 309 309 309 309 309 309 309 309 309 310 310 310 310 312 317 317 311 311 311 312 313 313 313 313 312 311 313 313 313 313 314 313 313 313 314 315 315 314 314 315 315 315
310 310 310 310 310 310 309 309 309 309 309 309 309 310 310 310 311 315 317 315 311 313 313 313 313 314 313 312 313 312 312 311 311 313 313 313 311 311 315 315 315 315 315 315 315
310 309 310 310 310 310 309 309 309 309 309 309 309 309 310 310 310 313 316 316 313 312 313 313 313 314 314 312 311 310 309 312 310 311 312 312 311 310 311 313 314 315 315 315 315
318 314 310 308 307 307 308 308 308 309 309 308 308 309 309 310 310 311 316 315 314 313 313 313 313 313 312 309 310 308 311 311 311 310 310 310 311 310 312 311 312 313 314 315 315
322 320 319 315 309 308 308 309 318 318 316 313 309 309 309 310 311 312 313 316 315 314 313 313 312 307 305 309 310 311 312 310 311 311 309 310 309 308 312 310 313 314 314 314 314
323 323 323 321 316 314 319 322 319 317 315 312 309 309 309 311 311 312 314 315 314 312 310 310 309 310 309 308 309 308 310 311 309 309 311 310 309 309 312 310 310 314 315 316 316
322 322 322 321 322 322 322 322 321 318 317 319 318 317 317 313 311 313 314 313 312 310 308 308 309 309 308 307 310 310 311 311 309 309 310 309 310 310 309 312 313 314 315 316 317
318 319 321 321 319 321 321 321 321 316 314 316 317 317 318 316 313 311 314 313 310 308 308 309 310 308 309 308 309 309 310 310 311 310 308 308 309 309 308 309 312 314 315 315 316
314 315 316 318 320 321 321 322 322 315 312 313 310 312 313 313 311 311 312 314 310 310 307 309 309 310 309 310 309 310 307 309 311 312 312 309 311 310 309 309 308 313 314 316 317
311 312 314 318 320 321 320 321 318 314 323 311 309 311 311 311 310 311 312 313 309 310 309 310 309 310 310 310 308 310 307 308 310 310 311 310 312 311 309 310 310 311 314 316 316
310 310 312 316 316 319 319 320 313 318 323 313 311 312 310 311 310 310 311 312 311 309 310 309 309 309 310 309 309 307 309 308 307 309 312 310 311 311 309 311 311 310 315 315 315
308 308 309 314 315 315 318 315 315 318 314 315 312 310 310 310 309 309 310 310 310 312 311 310 310 309 310 310 309 310 311 312 311 312 315 308 310 313 310 309 309 311 315 315 315
303 306 307 311 314 313 314 314 317 316 313 311 311 310 311 310 309 309 309 311 309 308 306 311 310 309 308 310 311 309 311 311 310 309 309 308 312 312 308 310 311 312 314 314 313
295 301 305 307 311 313 313 314 314 313 310 312 313 314 312 312 309 309 308 309 309 307 310 308 309 308 307 309 310 310 312 310 310 296 307 308 307 307 307 308 309 312 313 313 314
297 295 299 304 308 311 313 314 314 311 310 312 315 314 313 312 311 308 307 307 309 308 309 309 310 309 309 310 309 309 309 312 309 310 308 309 308 311 312 312 309 308 311 314 315
298 297 300 301 306 308 312 312 312 312 312 314 314 315 313 313 311 309 311 309 307 307 310 309 310 309 309 309 309 311 311 310 310 309 310 308 311 306 309 309 309 308 313 315 316
298 297 302 304 306 306 307 307 310 311 312 312 313 314 313 311 312 310 310 310 309 308 310 309 311 311 309 307 305 307 309 310 311 309 307 308 314 309 307 309 310 311 312 314 316
298 298 301 305 303 304 303 305 307 308 309 312 313 313 312 313 316 312 311 309 310 309 310 310 313 308 313 310 307 308 307 308 307 305 308 312 315 306 306 307 310 310 313 313 315
298 296 298 302 303 302 302 303 305 306 306 307 311 313 313 314 314 315 311 310 309 309 311 312 313 313 317 313 309 309 307 309 312 313 314 311 313 312 311 309 309 312 314 314 315
298 298 298 295 297 300 304 304 302 303 306 307 307 307 310 313 312 315 314 313 312 311 311 314 315 314 313 312 310 310 309 310 311 313 314 314 313 313 312 311 312 315 314 314 315
299 298 297 297 299 297 298 301 303 305 304 305 305 305 307 309 309 310 311 310 312 311 312 312 313 314 315 312 313 311 309 309 310 312 312 313 313 313 313 311 310 313 314 314 315
297 298 298 298 296 298 298 298 299 300 301 303 306 304 305 306 306 307 306 305 308 310 311 312 312 313 317 314 313 314 313 312 311 310 311 312 312 312 311 311 310 312 313 314 314
Wind_Speed
11 10 8 7 6 6 5 4 4 3 3 2 1 2 2 3 2 2 2 4 4 5 5 4 2 2 4 4 3 5 4 2 5 7 4 11 6 6 6 6 11 11 6 5 20
11 11 10 8 6 5 4 3 2 2 1 1 2 1 2 2 1 2 3 4 4 5 5 5 3 3 2 3 2 4 4 8 4 5 3 9 6 11 6 6 9 11 13 8 17
11 10 10 10 7 5 3 2 1 1 2 2 2 2 2 0 2 2 3 4 6 5 5 4 4 2 2 2 2 3 4 4 4 3 3 7 5 10 8 4 13 16 15 15 16
10 10 9 8 7 7 5 2 0 1 2 3 3 3 3 2 3 2 2 3 5 6 6 5 5 3 3 3 2 3 1 4 4 3 4 5 5 6 14 11 5 15 11 16 19
9 8 7 7 6 6 5 3 1 1 3 3 4 4 2 1 2 3 2 1 4 5 6 6 6 5 5 4 3 2 4 3 2 2 2 5 6 9 13 20 14 9 14 17 20
10 10 9 7 5 4 4 3 2 1 2 3 4 4 3 1 1 5 3 1 3 5 6 7 5 5 7 3 3 2 3 1 2 3 3 4 3 3 6 18 17 18 16 17 21
13 12 11 10 8 7 6 4 3 3 3 3 4 4 3 3 3 5 5 4 4 5 6 5 7 3 7 4 4 2 1 5 3 2 1 2 5 10 18 12 12 18 19 20 22
11 13 12 11 10 8 7 6 5 4 4 5 5 4 1 4 4 7 6 6 6 5 5 5 5 6 3 9 5 4 4 1 2 2 1 4 8 8 6 17 24 22 21 22 25
8 9 8 9 9 8 7 6 4 4 5 5 5 2 2 4 6 8 8 7 6 5 5 5 5 4 5 5 4 6 3 2 7 5 0 3 6 6 4 9 18 23 27 27 27
8 8 7 6 6 5 5 4 2 5 6 5 7 3 5 2 3 6 11 10 6 7 5 4 3 4 3 3 5 6 4 3 5 2 1 3 12 11 15 13 17 19 22 28 31
11 10 6 5 6 6 5 0 1 1 1 4 2 1 2 2 2 5 10 10 8 6 4 2 4 6 12 6 3 5 3 3 4 2 3 7 11 12 26 20 26 30 31 33 33
13 14 14 13 10 7 7 6 6 5 8 11 16 15 16 13 5 8 11 10 7 5 5 4 6 9 7 5 4 3 3 5 5 3 4 7 15 14 13 23 32 37 41 41 40
9 12 13 16 22 18 14 9 7 4 3 7 16 16 19 19 13 14 17 10 5 6 7 7 5 6 7 5 6 4 6 5 7 3 3 6 8 8 7 22 32 40 45 42 43
7 8 9 11 13 13 12 6 6 1 2 6 5 5 10 12 6 15 22 10 4 12 8 6 5 6 4 4 7 6 8 5 3 2 4 1 6 8 7 10 8 29 33 39 42
9 8 8 7 5 3 2 6 10 5 3 1 3 2 6 8 3 7 25 12 10 8 7 8 10 7 6 7 8 6 6 6 3 3 3 3 3 8 2 8 11 23 37 38 37
12 10 8 10 10 9 5 11 13 2 8 3 4 5 5 1 2 4 7 3 5 5 2 3 1 6 8 3 4 9 6 6 4 2 4 9 7 6 6 7 6 9 24 27 24
15 11 10 11 8 12 8 15 1 5 1 4 4 4 3 5 3 4 6 5 6 5 8 2 5 2 4 6 4 2 6 1 2 0 9 3 5 18 6 8 9 12 28 23 17
14 16 14 15 13 12 11 2 7 6 8 2 3 3 6 5 2 2 6 6 5 2 2 8 7 11 7 9 9 9 8 6 8 5 4 3 8 8 10 16 24 33 35 30 25
11 14 17 15 17 15 18 7 8 7 5 8 3 3 4 4 5 4 8 7 9 11 8 6 6 2 3 2 10 6 8 5 1 2 2 6 10 11 13 14 14 27 24 26 20
8 10 16 12 17 18 6 12 6 6 5 3 10 7 7 6 6 6 8 5 6 15 12 6 4 2 1 2 1 6 5 3 1 4 4 6 6 11 5 8 11 11 23 27 20
5 3 2 18 16 8 8 8 5 9 8 6 4 4 7 7 6 5 6 3 6 6 19 5 2 2 3 7 9 3 4 2 4 4 5 2 7 8 11 9 9 9 8 5 6
4 0 7 22 8 6 12 6 9 4 10 4 3 10 8 8 7 6 10 8 14 11 11 8 3 8 11 3 4 2 6 12 5 6 3 2 14 3 7 6 8 14 5 3 6
5 5 7 24 6 10 4 7 6 3 9 6 6 5 2 8 7 8 7 5 13 11 10 8 4 1 7 1 2 6 6 5 4 3 8 7 13 2 4 7 5 10 5 7 6
9 2 8 15 8 5 7 4 5 2 14 17 5 11 6 6 11 5 4 2 9 16 17 16 5 8 13 7 5 6 7 15 16 7 22 10 29 21 4 6 11 15 12 11 13
13 6 7 4 10 5 3 3 11 11 10 6 5 16 15 8 5 7 1 4 6 8 4 5 10 13 19 8 3 7 8 14 17 24 14 30 22 33 15 16 24 35 34 38 40
10 7 7 2 4 12 9 13 12 8 5 5 15 15 4 15 20 20 15 15 13 2 14 4 4 11 17 18 18 10 8 10 22 24 21 32 28 32 31 20 20 31 37 41 45
23 16 7 7 4 5 8 12 18 10 13 14 7 6 10 10 5 11 8 10 8 5 3 4 3 5 22 18 10 10 25 27 17 14 23 18 30 21 18 17 16 27 35 41 43
Wind_Direction
172 170 171 170 168 169 171 173 182 188 200 194 224 257 271 273 274 217 203 213 215 207 199 184 184 141 144 144 112 123 70 188 209 157 224 166 175 180 192 176 183 197 201 183 182
178 172 167 167 170 171 168 181 188 218 236 231 241 259 275 291 299 213 218 236 227 225 199 189 159 171 133 112 82 94 121 214 196 194 202 181 184 173 173 189 213 221 218 207 190
181 180 175 169 166 162 165 165 177 246 301 312 315 315 302 349 148 152 227 242 231 219 203 183 173 163 112 109 73 118 182 191 194 214 196 177 205 178 165 231 223 226 225 216 202
188 186 183 179 170 162 157 152 116 351 343 345 340 337 312 121 163 139 182 233 210 203 196 187 162 160 103 124 110 108 205 172 153 174 162 170 176 203 208 220 240 239 236 230 216
208 202 199 195 189 178 171 165 170 333 352 357 353 345 344 128 155 163 123 186 187 184 187 185 179 158 146 135 114 119 201 193 172 177 182 175 209 223 235 234 241 244 232 235 228
222 220 212 212 219 224 228 216 212 260 331 342 351 353 345 115 219 203 198 140 144 165 168 172 185 156 124 114 132 151 178 229 224 202 209 202 217 230 240 237 237 242 242 238 234
222 227 234 228 221 229 235 252 274 291 312 320 333 344 318 270 217 210 203 190 163 154 163 159 147 150 137 113 116 83 304 325 243 239 240 197 286 237 239 244 242 241 243 238 235
220 222 225 236 236 234 240 247 256 279 295 307 315 321 297 246 229 221 204 195 190 178 174 162 142 128 98 124 45 60 48 23 301 171 281 152 261 271 248 242 247 246 247 246 239
206 218 214 220 234 235 237 239 245 257 280 290 299 328 249 233 220 214 199 179 181 186 185 175 164 107 118 89 23 8 222 216 315 205 132 166 268 271 270 246 255 250 249 249 248
215 210 201 196 193 204 209 203 228 272 267 270 264 268 230 196 204 204 206 211 198 190 168 177 117 77 47 101 217 205 199 244 247 228 166 247 258 272 263 271 269 272 262 254 252
209 210 224 210 175 157 153 63 304 345 301 269 198 225 289 144 199 206 195 182 170 168 161 69 95 197 212 182 136 139 166 209 244 240 199 236 260 262 268 271 263 261 261 259 256
220 232 239 254 250 235 267 305 318 308 298 268 249 249 254 260 238 209 186 172 165 173 126 47 215 226 121 159 144 153 158 255 279 219 183 277 269 266 243 255 254 258 262 258 258
220 233 233 244 250 271 279 293 288 296 268 271 238 240 237 237 232 219 193 183 140 138 189 173 212 127 148 156 161 201 179 224 225 344 250 332 280 263 269 248 257 258 259 260 256
246 241 240 236 245 265 273 244 217 161 6 263 227 238 220 202 243 217 199 181 185 191 166 223 208 161 172 189 153 230 206 174 170 62 252 80 286 283 256 251 247 257 256 256 256
246 243 221 204 208 187 206 210 165 152 267 231 186 234 171 181 157 186 183 189 167 174 142 234 171 175 184 197 163 224 128 155 131 166 351 191 269 259 30 278 251 250 254 258 261
230 227 219 201 214 209 227 172 150 125 225 294 158 173 123 169 80 103 163 158 145 126 246 236 254 165 193 120 154 148 80 55 52 86 280 182 181 224 188 218 262 252 262 265 270
230 221 207 196 199 220 217 157 150 212 48 237 187 160 225 165 163 152 158 172 162 141 221 134 208 192 158 91 54 129 113 296 328 30 237 345 193 257 280 243 230 251 274 276 276
244 230 214 196 198 216 208 153 211 214 202 58 93 91 187 164 194 135 135 187 239 102 112 189 259 166 192 189 169 197 167 172 204 195 251 54 235 253 238 272 257 257 263 269 272
256 243 235 202 204 200 170 217 216 189 204 157 109 174 231 215 165 171 197 204 193 171 185 176 266 225 167 155 156 193 209 193 116 92 25 225 277 280 257 266 262 256 256 256 264
279 266 249 207 198 200 228 226 222 176 146 185 200 179 200 201 173 194 185 212 204 193 180 217 269 195 184 137 329 177 168 84 351 190 236 265 267 238 285 251 253 260 263 270 267
280 274 174 187 182 181 221 234 252 245 232 216 220 227 216 180 191 219 214 268 216 177 188 163 161 222 151 210 169 149 207 189 147 169 191 253 259 216 228 250 271 271 288 279 217
198 219 170 166 165 206 220 202 224 217 212 269 250 236 227 195 199 221 221 225 188 138 168 208 160 249 226 242 207 263 219 183 165 220 245 183 265 183 233 251 256 274 241 254 217
201 216 188 179 190 208 240 234 229 202 223 208 221 261 244 219 241 197 235 226 194 165 179 178 175 313 313 323 328 212 193 187 110 75 214 200 258 12 326 327 294 287 264 256 247
174 190 217 209 228 194 207 223 233 240 242 252 268 208 208 258 248 235 228 262 236 214 223 170 151 196 227 208 136 185 198 204 198 204 241 223 257 255 302 324 315 304 281 297 286
187 217 190 205 237 208 179 243 224 227 231 230 251 232 240 260 251 269 326 321 312 303 286 222 202 215 243 250 236 204 183 200 210 229 224 252 244 261 254 244 253 266 278 284 284
192 180 185 196 189 202 199 229 225 212 201 227 229 252 264 238 243 264 274 281 261 302 239 219 254 202 246 242 228 238 232 214 209 225 234 244 248 254 255 253 239 246 255 267 274
220 229 200 207 173 173 211 234 242 231 250 244 272 327 296 272 329 310 301 303 297 284 260 236 187 206 243 244 225 236 229 229 228 220 215 232 240 257 258 249 251 258 257 257 262